TimeCDT,TemperatureF,Dew PointF,Humidity,Sea Level PressureIn,VisibilityMPH,Wind Direction,Wind SpeedMPH,Gust SpeedMPH,PrecipitationIn,Events,Conditions,WindDirDegrees,DateUTC
12:45 AM,68.0,60.8,78,29.96,10.0,SSE,10.4,-,N/A,,Mostly Cloudy,150,2013-04-07 05:45:00
12:53 AM,68.0,61.0,78,29.96,10.0,SSE,9.2,-,N/A,,Mostly Cloudy,150,2013-04-07 05:53:00
1:34 AM,68.0,60.8,78,29.94,10.0,SSE,11.5,-,N/A,,Mostly Cloudy,150,2013-04-07 06:34:00
1:53 AM,69.1,62.1,78,29.94,10.0,SSE,11.5,-,N/A,,Overcast,160,2013-04-07 06:53:00
2:53 AM,69.1,61.0,75,29.93,10.0,SSE,9.2,-,N/A,,Mostly Cloudy,160,2013-04-07 07:53:00
3:53 AM,68.0,61.0,78,29.91,10.0,SSE,11.5,-,N/A,,Scattered Clouds,160,2013-04-07 08:53:00
4:53 AM,68.0,62.1,81,29.89,10.0,SSE,10.4,-,N/A,,Mostly Cloudy,150,2013-04-07 09:53:00
5:53 AM,68.0,62.1,81,29.90,10.0,SSE,8.1,-,N/A,,Mostly Cloudy,150,2013-04-07 10:53:00
6:53 AM,66.9,61.0,81,29.91,10.0,SE,8.1,-,N/A,,Partly Cloudy,140,2013-04-07 11:53:00
7:53 AM,68.0,62.1,81,29.93,10.0,SE,8.1,-,N/A,,Clear,140,2013-04-07 12:53:00
8:53 AM,72.0,63.0,73,29.95,10.0,SSE,11.5,-,N/A,,Scattered Clouds,150,2013-04-07 13:53:00
9:53 AM,75.0,61.0,62,29.97,10.0,SSE,17.3,-,N/A,,Scattered Clouds,150,2013-04-07 14:53:00
11:53 AM,77.0,61.0,58,29.98,10.0,SSE,16.1,-,N/A,,Mostly Cloudy,160,2013-04-07 16:53:00
12:51 PM,78.8,60.8,54,29.96,10.0,SSE,18.4,-,N/A,,Mostly Cloudy,150,2013-04-07 17:51:00
12:53 PM,78.1,60.1,54,29.96,10.0,SSE,19.6,-,N/A,,Mostly Cloudy,150,2013-04-07 17:53:00
1:22 PM,77.0,60.8,57,29.94,10.0,SSE,19.6,24.2,N/A,,Overcast,160,2013-04-07 18:22:00
1:53 PM,79.0,61.0,54,29.93,10.0,SSE,17.3,-,N/A,,Mostly Cloudy,160,2013-04-07 18:53:00
2:53 PM,79.0,60.1,52,29.91,10.0,SE,23.0,27.6,N/A,,Partly Cloudy,140,2013-04-07 19:53:00
3:53 PM,79.0,61.0,54,29.89,10.0,SSE,21.9,27.6,N/A,,Scattered Clouds,150,2013-04-07 20:53:00
4:53 PM,75.9,61.0,60,29.88,10.0,SE,20.7,25.3,N/A,,Overcast,140,2013-04-07 21:53:00
5:53 PM,77.0,62.1,60,29.86,10.0,SSE,17.3,-,N/A,,Scattered Clouds,150,2013-04-07 22:53:00
6:53 PM,73.9,62.1,66,29.86,10.0,SE,15.0,-,N/A,,Clear,140,2013-04-07 23:53:00
7:53 PM,71.1,63.0,75,29.86,10.0,SE,15.0,-,N/A,,Clear,140,2013-04-08 00:53:00
8:53 PM,70.0,64.0,81,29.87,10.0,SE,13.8,-,N/A,,Clear,140,2013-04-08 01:53:00
9:53 PM,70.0,64.9,84,29.88,10.0,SE,12.7,-,N/A,,Clear,140,2013-04-08 02:53:00
10:53 PM,70.0,64.9,84,29.87,10.0,SSE,15.0,-,N/A,,Clear,150,2013-04-08 03:53:00
11:53 PM,70.0,66.0,87,29.86,10.0,SSE,13.8,-,N/A,,Clear,150,2013-04-08 04:53:00